| time (UTC) | temp C | wind direction | speed KPH | gust KPH | rain 1hr cm | rain 24hr cm | rain mn cm | humidity % | barometer mb |
| 20260507073009 | 7 | 38 | 1.6 | 4.8 | 0.00 | 1.83 | 0.48 | 1 | 1010.7 |
| 20260507071509 | 7 | 38 | 1.6 | 6.4 | 0.00 | 1.83 | 0.48 | 1 | 1010.6 |
| 20260507070012 | 7 | 27 | 3.2 | 9.7 | 0.00 | 1.83 | 0.48 | 1 | 1010.5 |
| 20260507064509 | 8 | 25 | 3.2 | 8.0 | 0.00 | 1.93 | 0.48 | 1 | 1010.3 |
| 20260507063009 | 8 | 338 | 0.0 | 8.0 | 0.00 | 1.93 | 0.48 | 1 | 1010.0 |
| 20260507061514 | 8 | 276 | 0.0 | 0.0 | 0.00 | 1.93 | 0.48 | 1 | 1009.8 |
| 20260507061509 | 8 | 276 | 0.0 | 0.0 | 0.00 | 1.93 | 0.48 | 1 | 1009.8 |
| 20260507060009 | 8 | 276 | 0.0 | 0.0 | 0.00 | 1.93 | 0.48 | 1 | 1009.5 |
| 20260507054509 | 8 | 276 | 0.0 | 0.0 | 0.00 | 1.96 | 0.48 | 1 | 1009.3 |
| 20260507053009 | 8 | 277 | 0.0 | 0.0 | 0.00 | 1.96 | 0.48 | 1 | 1009.2 |
| 20260507051509 | 8 | 277 | 0.0 | 0.0 | 0.00 | 1.96 | 0.48 | 1 | 1008.8 |
| 20260507050009 | 8 | 277 | 0.0 | 0.0 | 0.00 | 1.96 | 0.48 | 1 | 1008.8 |
| 20260507044517 | 8 | 277 | 0.0 | 0.0 | 0.00 | 1.96 | 0.48 | 1 | 1008.5 |
| 20260507044509 | 8 | 277 | 0.0 | 0.0 | 0.00 | 1.96 | 0.48 | 1 | 1008.5 |
| 20260507043613 | 8 | 277 | 0.0 | 0.0 | 0.00 | 1.96 | 0.48 | 1 | 1008.4 |
| 20260507043015 | 8 | 277 | 0.0 | 0.0 | 0.00 | 1.96 | 0.48 | 1 | 1008.4 |
| 20260507043009 | 8 | 277 | 0.0 | 0.0 | 0.00 | 1.96 | 0.48 | 1 | 1008.4 |
| 20260507041509 | 8 | 277 | 0.0 | 0.0 | 0.03 | 1.96 | 0.48 | 1 | 1008.3 |
| 20260507040009 | 8 | 277 | 0.0 | 0.0 | 0.03 | 1.96 | 0.48 | 1 | 1008.1 |
| 20260507034509 | 8 | 277 | 0.0 | 0.0 | 0.03 | 1.98 | 0.48 | 1 | 1008.1 |
| 20260507033009 | 8 | 277 | 0.0 | 0.0 | 0.03 | 1.98 | 0.48 | 1 | 1008.0 |
| 20260507031546 | 8 | 277 | 0.0 | 0.0 | 0.00 | 1.96 | 0.46 | 1 | 1008.0 |
| 20260507031509 | 8 | 277 | 0.0 | 0.0 | 0.00 | 1.96 | 0.46 | 1 | 1008.0 |
| 20260507030125 | 8 | 277 | 0.0 | 0.0 | 0.03 | 1.96 | 0.46 | 1 | 1007.9 |
| 20260507030009 | 8 | 277 | 0.0 | 0.0 | 0.03 | 1.96 | 0.46 | 1 | 1007.9 |
| 20260507024509 | 8 | 277 | 0.0 | 0.0 | 0.05 | 2.34 | 0.46 | 1 | 1007.8 |
| 20260507023009 | 8 | 277 | 0.0 | 0.0 | 0.18 | 2.34 | 0.46 | 1 | 1007.9 |
| 20260507021509 | 8 | 277 | 0.0 | 0.0 | 0.36 | 2.34 | 0.46 | 1 | 1007.7 |
| 20260507020009 | 8 | 277 | 0.0 | 0.0 | 0.41 | 2.31 | 0.43 | 1 | 1007.7 |
| 20260507014509 | 8 | 277 | 0.0 | 0.0 | 0.38 | 2.82 | 0.41 | 1 | 1007.7 |
| 20260507013009 | 8 | 277 | 0.0 | 0.0 | 0.25 | 2.69 | 0.28 | 1 | 1007.7 |
| 20260507011509 | 8 | 277 | 0.0 | 0.0 | 0.08 | 2.51 | 0.10 | 1 | 1007.6 |
| 20260507010009 | 8 | 277 | 0.0 | 0.0 | 0.00 | 2.44 | 0.03 | 1 | 1007.4 |
| 20260507004509 | 8 | 277 | 1.6 | 4.8 | 0.00 | 3.15 | 0.03 | 1 | 1007.4 |
| 20260507003009 | 8 | 277 | 0.0 | 0.0 | 0.00 | 3.15 | 0.03 | 1 | 1007.4 |
| 20260507001509 | 8 | 277 | 1.6 | 4.8 | 0.00 | 3.15 | 0.03 | 1 | 1007.4 |
| 20260507000009 | 8 | 277 | 1.6 | 6.4 | 0.03 | 3.15 | 0.03 | 1 | 1007.3 |
| 20260506234515 | 8 | 277 | 1.6 | 4.8 | 0.03 | 3.56 | 0.03 | 1 | 1007.3 |
| 20260506234509 | 8 | 277 | 1.6 | 4.8 | 0.03 | 3.56 | 0.03 | 1 | 1007.3 |
| 20260506233009 | 8 | 277 | 3.2 | 9.7 | 0.03 | 3.56 | 0.03 | 1 | 1007.3 |
| 20260506231509 | 8 | 277 | 1.6 | 6.4 | 0.03 | 3.56 | 0.03 | 1 | 1007.2 |
| 20260506230009 | 8 | 278 | 1.6 | 3.2 | 0.00 | 3.53 | 0.00 | 1 | 1007.1 |
| 20260506224509 | 8 | 281 | 3.2 | 6.4 | 0.00 | 4.24 | 0.00 | 1 | 1007.1 |
| 20260506223009 | 8 | 273 | 3.2 | 12.9 | 0.00 | 4.24 | 0.00 | 1 | 1007.1 |
| 20260506221509 | 8 | 275 | 3.2 | 11.3 | 0.03 | 4.24 | 0.00 | 1 | 1007.0 |
| 20260506220010 | 8 | 272 | 3.2 | 11.3 | 0.03 | 4.24 | 0.00 | 1 | 1007.0 |
| 20260506214515 | 8 | 292 | 4.8 | 12.9 | 0.05 | 4.50 | 4.45 | 1 | 1006.9 |
| 20260506214509 | 8 | 292 | 4.8 | 12.9 | 0.05 | 4.50 | 4.45 | 1 | 1006.9 |
| 20260506213010 | 9 | 273 | 4.8 | 12.9 | 0.05 | 4.50 | 4.45 | 1 | 1006.9 |
| 20260506211510 | 9 | 284 | 3.2 | 12.9 | 0.03 | 4.47 | 4.42 | 1 | 1006.7 |
| 20260506210010 | 10 | 290 | 1.6 | 12.9 | 0.03 | 4.47 | 4.42 | 1 | 1006.7 |
| 20260506204510 | 10 | 289 | 3.2 | 8.0 | 0.00 | 4.65 | 4.39 | 1 | 1006.7 |
| 20260506203010 | 10 | 262 | 1.6 | 9.7 | 0.00 | 4.65 | 4.39 | 1 | 1006.5 |
| 20260506201510 | 10 | 256 | 0.0 | 8.0 | 0.00 | 4.65 | 4.39 | 1 | 1006.3 |
| 20260506200010 | 10 | 256 | 0.0 | 0.0 | 0.00 | 4.65 | 4.39 | 1 | 1006.2 |
| 20260506194510 | 10 | 256 | 0.0 | 0.0 | 0.00 | 5.00 | 4.39 | 1 | 1006.2 |
| 20260506193205 | 11 | 256 | 0.0 | 0.0 | 0.00 | 5.00 | 4.39 | 1 | 1006.0 |
| 20260506193010 | 11 | 256 | 0.0 | 0.0 | 0.00 | 5.00 | 4.39 | 1 | 1006.0 |
| 20260506191510 | 11 | 256 | 0.0 | 0.0 | 0.00 | 5.00 | 4.39 | 1 | 1005.8 |
| 20260506190010 | 11 | 256 | 0.0 | 0.0 | 0.00 | 5.00 | 4.39 | 1 | 1005.6 |
| 20260506184510 | 11 | 256 | 1.6 | 8.0 | 0.00 | 5.08 | 4.39 | 1 | 1005.5 |
| 20260506183010 | 11 | 257 | 1.6 | 8.0 | 0.00 | 5.08 | 4.39 | 1 | 1005.0 |
| 20260506181924 | 11 | 257 | 3.2 | 14.5 | 0.00 | 5.08 | 4.39 | 1 | 1005.0 |
| 20260506181510 | 11 | 257 | 3.2 | 14.5 | 0.00 | 5.08 | 4.39 | 1 | 1005.0 |
| 20260506180010 | 11 | 259 | 1.6 | 4.8 | 0.00 | 5.08 | 4.39 | 1 | 1004.9 |
| 20260506174515 | 11 | 257 | 3.2 | 11.3 | 0.00 | 5.18 | 4.39 | 1 | 1004.8 |
| 20260506174510 | 11 | 257 | 3.2 | 11.3 | 0.00 | 5.18 | 4.39 | 1 | 1004.8 |
| 20260506173010 | 11 | 261 | 1.6 | 9.7 | 0.00 | 5.18 | 4.39 | 1 | 1004.9 |
| 20260506171510 | 12 | 292 | 3.2 | 9.7 | 0.00 | 5.18 | 4.39 | 1 | 1004.8 |
| 20260506170010 | 12 | 265 | 4.8 | 16.1 | 0.00 | 5.18 | 4.39 | 1 | 1004.8 |
| 20260506164851 | 12 | 287 | 3.2 | 14.5 | 0.00 | 5.38 | 4.39 | 1 | 1004.6 |
| 20260506164510 | 12 | 287 | 3.2 | 14.5 | 0.00 | 5.38 | 4.39 | 1 | 1004.6 |
| 20260506163010 | 12 | 261 | 6.4 | 17.7 | 0.00 | 5.38 | 4.39 | 1 | 1004.6 |
| 20260506162010 | 13 | 255 | 4.8 | 16.1 | 0.00 | 5.38 | 4.39 | 1 | 1004.3 |
| 20260506161510 | 13 | 255 | 4.8 | 16.1 | 0.00 | 5.38 | 4.39 | 1 | 1004.3 |
| 20260506160010 | 13 | 281 | 3.2 | 11.3 | 0.00 | 5.38 | 4.39 | 1 | 1004.3 |
| 20260506154510 | 13 | 299 | 4.8 | 12.9 | 0.00 | 5.41 | 4.39 | 1 | 1004.3 |
| 20260506153010 | 14 | 275 | 8.0 | 16.1 | 0.00 | 5.41 | 4.39 | 1 | 1004.4 |
| 20260506151510 | 14 | 284 | 6.4 | 12.9 | 0.00 | 5.41 | 4.39 | 1 | 1004.4 |
| 20260506150010 | 15 | 297 | 4.8 | 14.5 | 0.00 | 5.41 | 4.39 | 1 | 1004.4 |
| 20260506144510 | 15 | 308 | 3.2 | 11.3 | 0.00 | 5.41 | 4.39 | 1 | 1004.3 |
| 20260506143010 | 15 | 274 | 3.2 | 6.4 | 0.00 | 5.41 | 4.39 | 1 | 1004.2 |
| 20260506141510 | 15 | 265 | 0.0 | 0.0 | 0.00 | 5.41 | 4.39 | 1 | 1004.4 |
| 20260506140010 | 15 | 265 | 0.0 | 4.8 | 0.00 | 5.41 | 4.39 | 1 | 1004.4 |
| 20260506134510 | 14 | 265 | 0.0 | 0.0 | 0.03 | 5.41 | 4.39 | 1 | 1004.5 |
| 20260506133010 | 14 | 264 | 1.6 | 9.7 | 0.20 | 5.41 | 4.39 | 1 | 1004.6 |
| 20260506131735 | 15 | 41 | 0.0 | 0.0 | 0.43 | 5.41 | 4.39 | 1 | 1004.5 |
| 20260506131510 | 15 | 41 | 0.0 | 0.0 | 0.43 | 5.41 | 4.39 | 1 | 1004.5 |
| 20260506130010 | 13 | 41 | 0.0 | 0.0 | 0.58 | 5.41 | 4.39 | 1 | 1004.4 |
| 20260506124510 | 13 | 41 | 0.0 | 0.0 | 0.58 | 5.38 | 4.37 | 1 | 1004.4 |
| 20260506123010 | 12 | 41 | 0.0 | 0.0 | 0.58 | 5.21 | 4.19 | 1 | 1004.5 |
| 20260506121510 | 12 | 41 | 0.0 | 8.0 | 0.51 | 4.98 | 3.96 | 1 | 1004.2 |
| 20260506120010 | 12 | 41 | 3.2 | 6.4 | 0.61 | 4.83 | 3.81 | 1 | 1004.2 |
| 20260506114510 | 13 | 40 | 0.0 | 8.0 | 0.61 | 4.80 | 3.78 | 1 | 1004.2 |
| 20260506113010 | 12 | 40 | 0.0 | 0.0 | 0.43 | 4.62 | 3.61 | 1 | 1004.1 |
| 20260506111510 | 12 | 40 | 0.0 | 0.0 | 0.28 | 4.47 | 3.45 | 1 | 1004.1 |
| 20260506110010 | 13 | 40 | 0.0 | 0.0 | 0.03 | 4.22 | 3.20 | 1 | 1004.1 |
| 20260506104510 | 13 | 36 | 0.0 | 0.0 | 0.00 | 4.19 | 3.17 | 1 | 1004.1 |
| 20260506103010 | 13 | 36 | 3.2 | 9.7 | 0.00 | 4.19 | 3.17 | 1 | 1004.1 |
| 20260506101510 | 13 | 20 | 1.6 | 0.0 | 0.00 | 4.19 | 3.17 | 1 | 1004.0 |
| 20260506100010 | 13 | 13 | 0.0 | 0.0 | 0.00 | 4.19 | 3.17 | 1 | 1004.0 |
| 20260506094510 | 12 | 13 | 0.0 | 0.0 | 0.00 | 4.19 | 3.17 | 1 | 1004.0 |
| 20260506093010 | 12 | 13 | 0.0 | 0.0 | 0.03 | 4.19 | 3.17 | 1 | 1004.0 |
| 20260506091510 | 12 | 13 | 0.0 | 0.0 | 0.05 | 4.19 | 3.17 | 1 | 1003.8 |
| 20260506090010 | 11 | 13 | 0.0 | 0.0 | 0.08 | 4.19 | 3.17 | 1 | 1004.0 |
| 20260506084516 | 11 | 13 | 0.0 | 0.0 | 0.08 | 4.19 | 3.17 | 1 | 1004.0 |
| 20260506084510 | 11 | 13 | 0.0 | 0.0 | 0.08 | 4.19 | 3.17 | 1 | 1004.0 |
| 20260506083016 | 11 | 13 | 0.0 | 0.0 | 0.08 | 4.17 | 3.15 | 1 | 1003.9 |
| 20260506083010 | 11 | 13 | 0.0 | 0.0 | 0.08 | 4.17 | 3.15 | 1 | 1003.9 |
| 20260506081510 | 11 | 13 | 0.0 | 0.0 | 0.10 | 4.14 | 3.12 | 1 | 1003.7 |